[[{"header":{"parameterUnit":"m.s-1","parameterCategory":1,"la1":30.2991,"la2":30.254,"lo1":-89.0895,"lo2":-89.0444,"dy":0.0017,"dx":0.0017,"nx":28,"ny":28,"refTime":"2024-08-28T09:00:00:Z","depth":0,"parameterNumber":2,"parameterNumberName":"U-component_of_WINDS"},"data":[0,0,0,0,0,0,0,0,0,0,0,0,0,0,0,0,0,0,0,0,0,0,0,0,0,0,0,0,0,0,0,0,0,0,0,0,0,0,0,0,0,0,0,0,0,0,0,0,0,0,0,0,0,0,0,0,0,0,-1.4869,-1.487,0,-1.4961,-1.4962,-1.4963,-1.4984,-1.4984,-1.4983,-1.4982,-1.5078,-1.5081,-1.5084,0,0,0,0,0,0,0,0,0,0,0,0,0,-1.4712,-1.4715,-1.4868,-1.487,-1.4871,-1.4961,-1.4962,-1.4963,-1.4984,-1.4984,-1.4983,-1.4982,-1.5077,-1.5081,-1.5084,0,0,0,0,0,0,0,0,0,0,0,0,0,-1.479,-1.4716,-1.4868,-1.4892,-1.4895,-1.4961,-1.4962,-1.4964,-1.4985,-1.4984,-1.4983,-1.4982,-1.5076,-1.508,-1.5085,-1.5133,0,0,-1.5099,-1.5101,0,0,0,0,0,0,0,0,-1.4785,-1.4795,-1.4887,-1.4891,-1.4894,-1.496,-1.4942,-1.5021,-1.4985,-1.4951,-1.4982,-1.4981,-1.504,-1.5047,-1.5067,-1.5138,-1.5142,-1.51,-1.5102,-1.5105,-1.5106,0,0,0,0,0,0,0,-1.478,-1.4792,-1.4905,-1.4889,-1.4893,-1.4899,-1.4909,-1.4957,-1.4999,-1.4954,-1.4955,-1.4966,-1.5041,-1.5062,-1.5069,-1.5143,-1.51,-1.5104,-1.5107,-1.5108,-1.526,-1.5261,0,0,0,0,0,0,-1.477,-1.4787,-1.4902,-1.4908,-1.4836,-1.4902,-1.4914,-1.494,-1.4999,-1.5007,-1.4967,-1.4967,-1.5054,-1.5063,-1.5072,-1.5134,-1.5104,-1.5109,-1.5112,-1.5259,-1.526,-1.5261,0,0,0,0,0,0,-1.4767,-1.478,-1.4898,-1.4848,-1.4863,-1.4906,-1.4936,-1.4942,-1.4963,-1.5009,-1.5017,-1.498,-1.5054,-1.5066,-1.5118,-1.5137,-1.5111,-1.5115,-1.5257,-1.5259,-1.5261,-1.5256,0,0,0,0,0,0,-1.4762,-1.4779,-1.4797,-1.4848,-1.4866,-1.4942,-1.4937,-1.4945,-1.4971,-1.4972,-1.5023,-1.5031,-1.5054,-1.5111,-1.5123,-1.5143,-1.5119,-1.5256,-1.5258,-1.526,-1.5255,-1.5257,-1.526,0,0,0,0,0,-1.4756,-1.4792,-1.4798,-1.4812,-1.489,-1.4943,-1.4953,-1.4979,-1.4972,-1.4992,-1.5021,-1.5029,-1.5133,-1.5116,-1.513,-1.5152,-1.5255,-1.5257,-1.526,-1.5253,-1.5257,-1.526,0,0,0,0,0,0,-1.4742,-1.4799,-1.4806,-1.486,-1.4896,-1.4947,-1.4971,-1.4982,-1.5021,-1.502,-1.5051,-1.5062,-1.5113,-1.5138,-1.5118,-1.5202,-1.5194,-1.5199,-1.5184,-1.5188,-1.519,-1.5183,-1.5123,0,0,0,0,0,-1.4745,-1.4784,-1.4831,-1.4874,-1.4892,-1.4928,-1.4953,-1.4969,-1.5009,-1.5024,-1.5058,-1.5096,-1.5137,-1.5164,-1.5205,-1.5258,-1.527,-1.528,-1.5283,-1.5285,-1.5289,-1.532,-1.5326,-1.527,-1.527,-1.527,0,0,-1.4752,-1.4788,-1.481,-1.4872,-1.4902,-1.4942,-1.4941,-1.4983,-1.5013,-1.5031,-1.5082,-1.5108,-1.5153,-1.5207,-1.5232,-1.5229,-1.5307,-1.5288,-1.5289,-1.5293,-1.5324,-1.5329,-1.5333,-1.5272,-1.5272,-1.5271,0,0,-1.4785,-1.4815,-1.4855,-1.4885,-1.4931,-1.4956,-1.4965,-1.5014,-1.5032,-1.5084,-1.5099,-1.5135,-1.5205,-1.5237,-1.5262,-1.5307,-1.5317,-1.532,-1.5333,-1.5363,-1.5367,-1.5372,-1.5388,-1.5394,-1.5324,-1.5324,-1.5324,0,-1.4788,-1.4847,-1.4873,-1.4914,-1.4941,-1.496,-1.5,-1.5028,-1.5085,-1.5104,-1.51,-1.5189,-1.5221,-1.5282,-1.5293,-1.5313,-1.5325,-1.5314,-1.5365,-1.5369,-1.5373,-1.5389,-1.5396,-1.5324,-1.5324,-1.5324,-1.5324,0,-1.4848,-1.4889,-1.4916,-1.497,-1.5,-1.504,-1.5073,-1.5101,-1.5115,-1.514,-1.5193,-1.5232,-1.5281,-1.5297,-1.5311,-1.5361,-1.5357,-1.5358,-1.5351,-1.5378,-1.5394,-1.54,-1.5324,-1.5324,-1.5324,-1.5324,0,0,-1.4875,-1.4943,-1.4953,-1.4978,-1.503,-1.5063,-1.5105,-1.5152,-1.5175,-1.5214,-1.525,-1.531,-1.5312,-1.534,-1.5358,-1.5385,-1.5419,-1.5383,-1.5385,-1.5389,-1.5477,-1.5476,-1.5482,-1.5426,-1.5427,-1.5428,-1.5473,0,-1.4914,-1.4988,-1.5013,-1.5075,-1.5114,-1.5132,-1.5169,-1.5205,-1.523,-1.5267,-1.5294,-1.5336,-1.5335,-1.5352,-1.5379,-1.5409,-1.5437,-1.5406,-1.546,-1.5462,-1.5448,-1.5491,-1.5489,-1.553,-1.548,-1.5481,-1.5481,0,-1.497,-1.5009,-1.5075,-1.5123,-1.514,-1.5172,-1.5218,-1.5253,-1.5295,-1.5312,-1.5344,-1.536,-1.5405,-1.5395,-1.5457,-1.5436,-1.5459,-1.5477,-1.548,-1.5486,-1.5473,-1.5498,-1.5544,-1.555,-1.5491,-1.5491,-1.549,0,-1.4983,-1.5052,-1.5101,-1.5122,-1.5179,-1.5201,-1.5227,-1.5268,-1.5295,-1.5336,-1.5354,-1.5399,-1.5424,-1.5459,-1.5487,-1.5477,-1.5548,-1.554,-1.5563,-1.5562,-1.5577,-1.5576,-1.5627,-1.5592,-1.5592,-1.5592,-1.5591,0,-1.5024,-1.5063,-1.5107,-1.5137,-1.5182,-1.5211,-1.5255,-1.5282,-1.5318,-1.5354,-1.5373,-1.5406,-1.5441,-1.548,-1.5502,-1.5551,-1.5562,-1.5577,-1.5582,-1.5575,-1.5573,-1.5591,-1.5589,-1.5593,-1.5593,-1.5593,-1.5592,0,-1.5046,-1.5077,-1.5131,-1.5181,-1.5195,-1.5226,-1.5269,-1.5299,-1.5324,-1.5369,-1.5382,-1.5422,-1.5468,-1.55,-1.5559,-1.5574,-1.5627,-1.5632,-1.5612,-1.5615,-1.5637,-1.5635,-1.5702,-1.5713,-1.567,-1.567,-1.567,0,-1.5071,-1.5101,-1.5155,-1.518,-1.5205,-1.5245,-1.5273,-1.5303,-1.5332,-1.5382,-1.5406,-1.5453,-1.5493,-1.5565,-1.56,-1.5646,-1.5652,-1.5673,-1.5659,-1.5651,-1.5653,-1.5651,-1.5654,-1.5675,-1.5675,-1.5675,-1.5675,0,-1.5111,-1.5125,-1.5164,-1.5209,-1.5242,-1.5279,-1.5316,-1.5336,-1.5372,-1.5404,-1.5451,-1.5481,-1.5541,-1.5588,-1.5637,-1.5664,-1.5676,-1.5679,-1.5687,-1.5681,-1.5668,-1.5676,-1.5618,-1.5678,-1.5678,-1.5677,-1.5677,-1.5677,-1.5136,-1.5164,-1.5206,-1.5249,-1.5281,-1.5315,-1.5346,-1.5375,-1.5415,-1.5466,-1.5481,-1.553,-1.5573,-1.5639,-1.5667,-1.5706,-1.5705,-1.5716,-1.5719,-1.5721,-1.5721,-1.5662,-1.5715,-1.5715,-1.5715,-1.5715,-1.5715,0,-1.5177,-1.5205,-1.5245,-1.5296,-1.5331,-1.5339,-1.5381,-1.5409,-1.5452,-1.549,-1.5528,-1.5582,-1.5628,-1.5667,-1.5714,-1.5738,-1.5745,-1.5749,-1.5748,-1.5754,-1.572,-1.5708,-1.5743,-1.5743,-1.5743,-1.5743,-1.5743,-1.5743,-1.5203,-1.5252,-1.5271,-1.5335,-1.5363,-1.5411,-1.5434,-1.5467,-1.5497,-1.5557,-1.5595,-1.5619,-1.5658,-1.5708,-1.5751,-1.5761,-1.5778,-1.5781,-1.5793,-1.576,-1.5757,-1.5753,-1.5743,-1.5785,-1.5785,-1.5824,-1.5825,-1.5825]},{"header":{"parameterUnit":"m.s-1","parameterCategory":1,"la1":30.2991,"la2":30.254,"lo1":-89.0895,"lo2":-89.0444,"dy":0.0017,"dx":0.0017,"nx":28,"ny":28,"refTime":"2024-08-28T09:00:00:Z","depth":0,"parameterNumber":3,"parameterNumberName":"V-component_of_WINDS"},"data":[0,0,0,0,0,0,0,0,0,0,0,0,0,0,0,0,0,0,0,0,0,0,0,0,0,0,0,0,0,0,0,0,0,0,0,0,0,0,0,0,0,0,0,0,0,0,0,0,0,0,0,0,0,0,0,0,0,0,2.2587,2.2587,0,2.2581,2.2581,2.2581,2.2527,2.2526,2.2524,2.2523,2.2517,2.2518,2.2519,0,0,0,0,0,0,0,0,0,0,0,0,0,2.2553,2.2554,2.2587,2.2587,2.2587,2.2581,2.2581,2.2581,2.2527,2.2526,2.2524,2.2523,2.2517,2.2518,2.2519,0,0,0,0,0,0,0,0,0,0,0,0,0,2.256,2.2555,2.2587,2.256,2.2557,2.2581,2.2581,2.2581,2.2528,2.2526,2.2524,2.2522,2.2516,2.2518,2.2519,2.2569,0,0,2.2524,2.2525,0,0,0,0,0,0,0,0,2.2559,2.2561,2.2564,2.2562,2.2559,2.2553,2.2566,2.2577,2.2528,2.2539,2.2523,2.2521,2.253,2.2531,2.2534,2.2569,2.2568,2.2524,2.2525,2.2526,2.2526,0,0,0,0,0,0,0,2.2559,2.2561,2.2585,2.2564,2.2561,2.2548,2.2546,2.2568,2.2546,2.2538,2.2534,2.2534,2.2529,2.2533,2.2533,2.2568,2.2524,2.2526,2.2527,2.2527,2.2642,2.2644,0,0,0,0,0,0,2.2562,2.2561,2.2585,2.2584,2.2554,2.255,2.2548,2.2557,2.2546,2.2542,2.2536,2.2531,2.2531,2.2532,2.2533,2.2589,2.2526,2.2528,2.2528,2.264,2.2642,2.2645,0,0,0,0,0,0,2.2562,2.2565,2.2585,2.2572,2.2573,2.2553,2.2562,2.2558,2.2561,2.2544,2.254,2.2543,2.2529,2.2531,2.256,2.2588,2.2528,2.253,2.2637,2.2641,2.2644,2.2702,0,0,0,0,0,0,2.2561,2.2565,2.2584,2.2572,2.2574,2.2612,2.2564,2.2559,2.2564,2.2559,2.255,2.2547,2.2528,2.2558,2.2562,2.2589,2.2531,2.2635,2.2639,2.2643,2.2697,2.2707,2.2714,0,0,0,0,0,2.256,2.2601,2.2585,2.2588,2.2597,2.2614,2.2615,2.2592,2.2567,2.2585,2.2574,2.2547,2.2585,2.2561,2.2565,2.2593,2.2633,2.2638,2.2642,2.2693,2.2705,2.2714,0,0,0,0,0,0,2.2616,2.2599,2.2581,2.2619,2.2619,2.2605,2.2627,2.2605,2.2612,2.2606,2.2578,2.2576,2.261,2.2605,2.2579,2.264,2.2604,2.261,2.2642,2.2652,2.2661,2.266,2.2532,0,0,0,0,0,2.2633,2.2648,2.2632,2.2668,2.2668,2.2648,2.2655,2.2637,2.2635,2.2635,2.2626,2.2625,2.2636,2.2644,2.2654,2.2697,2.2694,2.2718,2.2727,2.2734,2.2739,2.276,2.277,2.266,2.266,2.266,0,0,2.2668,2.266,2.2672,2.2679,2.2676,2.2692,2.2648,2.2667,2.2679,2.2638,2.2664,2.2658,2.2655,2.2691,2.2706,2.2688,2.2769,2.274,2.2746,2.2747,2.2766,2.2776,2.2785,2.2663,2.2663,2.2662,0,0,2.2739,2.2736,2.2764,2.2762,2.2758,2.2744,2.2752,2.2741,2.2735,2.2762,2.2731,2.2744,2.2765,2.2764,2.2766,2.2837,2.2812,2.2841,2.2885,2.2906,2.2915,2.2922,2.2946,2.2955,2.2846,2.2847,2.2847,0,2.2782,2.2805,2.2781,2.2802,2.2805,2.2769,2.2797,2.2797,2.2797,2.28,2.2779,2.2804,2.28,2.2834,2.2851,2.2855,2.2861,2.2841,2.2916,2.2923,2.2929,2.2952,2.2961,2.285,2.285,2.2849,2.2849,0,2.2858,2.2875,2.2898,2.2898,2.2905,2.2929,2.2908,2.2918,2.29,2.2889,2.2916,2.291,2.2917,2.2924,2.2907,2.2956,2.2944,2.2921,2.2883,2.2944,2.2964,2.2972,2.2855,2.2854,2.2853,2.2852,0,0,2.2963,2.295,2.2958,2.2957,2.2951,2.2963,2.2986,2.2993,2.3001,2.3003,2.302,2.3039,2.3016,2.3019,2.3002,2.302,2.3075,2.2994,2.2993,2.3007,2.3127,2.3143,2.3154,2.3059,2.3061,2.3062,2.3126,0,2.303,2.3067,2.3046,2.3086,2.3101,2.3067,2.3086,2.3084,2.3075,2.3085,2.3075,2.3087,2.3058,2.3059,2.3076,2.3065,2.3098,2.306,2.3075,2.3075,2.3074,2.3165,2.3182,2.3243,2.3134,2.3136,2.3137,0,2.3112,2.3117,2.3158,2.3148,2.3153,2.3171,2.3175,2.3187,2.3184,2.3175,2.3178,2.3157,2.3178,2.3143,2.3172,2.3146,2.3151,2.3147,2.3149,2.3147,2.3108,2.3164,2.3262,2.327,2.3149,2.3148,2.3147,0,2.3182,2.3199,2.3225,2.3226,2.3215,2.3229,2.3225,2.322,2.3225,2.3229,2.3232,2.3239,2.3243,2.3248,2.3229,2.3206,2.326,2.3224,2.3253,2.3253,2.3264,2.3263,2.3362,2.3271,2.3271,2.327,2.327,0,2.3258,2.3284,2.3256,2.3272,2.3301,2.3277,2.3305,2.3298,2.3294,2.3308,2.328,2.3294,2.3269,2.328,2.3266,2.3291,2.3293,2.3286,2.3281,2.3287,2.3288,2.3289,2.3283,2.3273,2.3272,2.3272,2.3271,0,2.334,2.3322,2.3349,2.3337,2.3334,2.3355,2.3345,2.3359,2.3348,2.3366,2.3369,2.3351,2.3363,2.3345,2.3355,2.3345,2.3379,2.3369,2.338,2.3376,2.3405,2.3402,2.3507,2.3518,2.3422,2.3422,2.3423,0,2.3388,2.3407,2.3397,2.3404,2.3402,2.3414,2.3419,2.3396,2.3403,2.3401,2.3415,2.3425,2.3431,2.3451,2.3439,2.3447,2.3435,2.3472,2.3436,2.3441,2.3434,2.3432,2.3433,2.3478,2.3479,2.348,2.3481,0,2.3475,2.3465,2.3473,2.3478,2.3485,2.3488,2.3489,2.3497,2.3473,2.3481,2.3493,2.3498,2.3508,2.3517,2.3521,2.3517,2.3495,2.3493,2.3499,2.3504,2.3509,2.3505,2.3397,2.349,2.3489,2.3488,2.3488,2.3487,2.354,2.3555,2.355,2.3559,2.3558,2.3559,2.3572,2.3562,2.3571,2.3577,2.3563,2.3578,2.3574,2.3578,2.3577,2.3588,2.3572,2.3582,2.3584,2.3587,2.359,2.3509,2.3589,2.3588,2.3588,2.3588,2.3588,0,2.3623,2.3619,2.3628,2.363,2.3638,2.3616,2.3616,2.3624,2.3637,2.3636,2.3642,2.3655,2.3664,2.3653,2.366,2.3671,2.3661,2.3673,2.3671,2.367,2.3605,2.3598,2.3681,2.3681,2.3681,2.3681,2.3681,2.3681,2.3668,2.3692,2.3681,2.3704,2.3699,2.3713,2.3714,2.3716,2.3714,2.3729,2.3737,2.3729,2.3724,2.373,2.3737,2.3734,2.3737,2.3753,2.3746,2.3684,2.3675,2.3666,2.3659,2.3754,2.3754,2.381,2.381,2.3811]}]]